Station TCBM2 - 8573364 - Tolchester Beach, MD Image indicating link to RSS feed of recent meteorological observations for station TCBM2


Conditions at TCBM2 as of
(3:30 am EDT)
0730 GMT on 06/13/2024:
     

Click on the graph icon in the table below to see a time series plot of the last five days of that observation.

5-day plot - Wind Direction Wind Direction (WDIR): E ( 100 deg true )
5-day plot - Wind Speed Wind Speed (WSPD): 1.9 kts
5-day plot - Wind Gust Wind Gust (GST): 2.9 kts
5-day plot - Atmospheric Pressure Atmospheric Pressure (PRES):30.01 in
5-day plot - Air Temperature Air Temperature (ATMP): 67.3 °F
5-day plot - Water Temperature Water Temperature (WTMP): 76.8 °F
5-day plot - Wind Speed at 10 Meters Wind Speed at 10 meters (WSPD10M): 1.9 kts
5-day plot - Wind Speed at 20 Meters Wind Speed at 20 meters (WSPD20M): 3.9 kts
5-day plot -  Wind Speed, Wind Gust and Atmospheric Pressure Combined plot of Wind Speed, Gust, and Air Pressure
NOS Water Level Observation Network Water Level
Previous observations
TIME
(EDT)
5-day plot - Wind Direction
WDIR
 
5-day plot - Wind Speed
WSPD
kts
5-day plot - Wind Gust
GST
kts
5-day plot - Wave Height
WVHT
ft
5-day plot - Dominant Wave Period
DPD
sec
5-day plot - Average Wave Period
APD
sec
5-day plot - Mean Wave Direction
MWD
 
5-day plot - Atmospheric Pressure
PRES
in
5-day plot - Pressure Tendency
PTDY
in
5-day plot - Air Temperature
ATMP
°F
5-day plot - Water Temperature
WTMP
°F
5-day plot - Dew Point
DEWP
°F
5-day plot - Salinity
SAL
psu
5-day plot - Visibility
VIS
nmi
5-day plot - Tide (above MLLW)
TIDE
ft
2024-06-13 03:24 am E 1.9 1.9----30.01- 68.4 76.8----
2024-06-13 03:18 am SE 1.9 2.9----30.01- 69.1 76.8----
2024-06-13 03:12 amSSE 1.0 2.9----30.01- 69.3 76.8----
2024-06-13 03:06 amSSE 1.0 2.9----30.00- 69.4 76.8----
2024-06-13 03:00 am SE 1.9 2.9----30.00-0.03 70.0 76.8----
2024-06-13 02:54 amSSE 1.9 5.1----30.00- 70.2 76.8----
2024-06-13 02:48 amSSE 1.9 4.1----30.01-- 76.8----
2024-06-13 02:42 amSSE 1.9 2.9----30.01-- 77.0----
2024-06-13 02:36 am SE 1.9 4.1----30.00-- 77.0----
2024-06-13 02:30 am SE 2.9 4.1----30.01- 70.3 77.0----
2024-06-13 02:24 amSSE 1.9 2.9----30.01- 70.5 77.0----
2024-06-13 02:18 amSSE 2.9 5.1----30.01- 70.5 77.0----
2024-06-13 02:12 amSSE 1.9 5.1----30.01- 70.7 77.0----
2024-06-13 02:06 amSSE 2.9 4.1----30.01- 70.9 77.0----
2024-06-13 02:00 amSSE 2.9 4.1----30.01-0.02------
2024-06-13 01:54 amSSE 2.9 4.1----30.01-------
2024-06-13 01:48 am-------30.01- 71.1 77.0----
2024-06-13 01:42 am-------30.01- 71.1 77.0----
2024-06-13 01:36 am-------30.01- 71.1 77.0----
2024-06-13 01:30 am S 2.9 6.0----30.02- 70.9 77.0----
2024-06-13 01:24 am S 1.9 5.1----30.02- 70.5 77.0----
2024-06-13 01:18 amSSE 2.9 5.1----30.01- 70.5 77.0----
2024-06-13 01:12 amSSE 2.9 5.1----30.02- 70.3 77.0----
2024-06-13 01:06 amSSE 2.9 6.0----30.02- 70.3 77.0----
2024-06-13 01:00 am-------30.02- 70.3 77.0----
2024-06-13 12:54 am-------30.02- 70.2 77.0----
2024-06-13 12:48 amSSE 2.9 5.1----30.02- 70.2 77.0----
2024-06-13 12:42 amSSE 1.9 4.1----30.02- 70.2 77.0----
2024-06-13 12:36 am S 1.9 4.1----30.02- 70.2 77.0----
2024-06-13 12:30 amSSE 1.9 4.1----30.02- 69.4 77.0----
2024-06-13 12:24 am SE 1.9 2.9----30.02- 69.1 77.0----
2024-06-13 12:18 am SE 1.9 2.9----30.03- 69.6 77.0----
2024-06-13 12:12 amESE 1.9 4.1----30.03- 70.0 77.0----
2024-06-13 12:06 am SE 2.9 5.1----30.03- 70.3 77.2----
2024-06-13 12:00 amSSE 1.9 4.1----30.03- 70.5 77.2----
2024-06-12 11:54 pmSSE 1.9 5.1----30.03- 70.7 77.2----
2024-06-12 11:48 pm S 1.9 4.1----30.03-- 77.2----
2024-06-12 11:42 pmSSE 1.9 2.9----30.03-- 77.2----
2024-06-12 11:36 pmSSE 2.9 5.1----30.03-- 77.4----
2024-06-12 11:30 pm SE 2.9 4.1------------
2024-06-12 11:24 pm SE 2.9 5.1------------
2024-06-12 11:18 pm SE 1.9 4.1----30.03-- 77.4----
2024-06-12 11:12 pm SE 2.9 4.1----30.03-- 77.4----
2024-06-12 11:06 pm SE 2.9 5.1----30.03-- 77.4----
2024-06-12 11:00 pm SE 2.9 5.1----30.03+0.03 70.3 77.4----
2024-06-12 10:54 pmESE 2.9 4.1----30.03- 70.5 77.4----
2024-06-12 10:48 pm SE 2.9 5.1----30.03- 70.9 77.5----
2024-06-12 10:42 pm SE 1.9 4.1----30.03- 70.7 77.5----
2024-06-12 10:36 pm SE 2.9 5.1----30.03- 70.7 77.5----
2024-06-12 10:30 pm SE 2.9 5.1----30.03- 70.5 77.5----
2024-06-12 10:24 pm SE 2.9 4.1----30.03- 70.5 77.5----
2024-06-12 10:18 pm-------30.03-------
2024-06-12 10:12 pm SE 2.9 4.1----30.03- 69.8-----
2024-06-12 10:06 pm SE 2.9 5.1----30.03- 70.9-----
2024-06-12 10:00 pm SE 1.9 2.9------------
2024-06-12 09:54 pm SE 2.9 4.1------------
2024-06-12 09:48 pm SE 2.9 4.1----30.02-- 77.7----
2024-06-12 09:42 pm SE 2.9 4.1----30.02-- 77.9----
2024-06-12 09:36 pm SE 1.9 2.9----30.02-- 77.9----
2024-06-12 09:30 pm SE 1.9 4.1----30.02- 72.3 77.7----
2024-06-12 09:24 pm SE 1.9 4.1----30.02- 72.5 77.7----
2024-06-12 09:18 pmSSE 1.9 4.1----30.01-- 77.7----
2024-06-12 09:12 pm SE 2.9 4.1----30.01-- 77.7----
2024-06-12 09:06 pm SE 1.9 2.9----30.01-- 77.7----
2024-06-12 09:00 pm SE 1.9 2.9------- 77.5----
2024-06-12 08:54 pmSSE 1.9 4.1------- 77.5----
2024-06-12 08:48 pm SE 2.9 4.1----30.01-- 77.5----
2024-06-12 08:42 pm SE 1.9 2.9----30.01-- 77.5----
2024-06-12 08:36 pm SE 2.9 4.1----30.00-- 77.4----
2024-06-12 08:30 pm SE 1.9 4.1----30.00-- 77.4----
2024-06-12 08:24 pm SE 1.9 4.1----30.01-- 77.0----
2024-06-12 08:18 pm SE 1.9 2.9----30.01- 74.7 76.8----
2024-06-12 08:12 pm SE 1.9 4.1----30.00- 75.0 76.8----
2024-06-12 08:06 pm SE 2.9 5.1----30.00- 75.2 76.6----
2024-06-12 08:00 pm SE 1.9 4.1----30.00+0.00- 77.4----
2024-06-12 07:54 pmSSE 2.9 5.1----30.00-- 77.5----
2024-06-12 07:48 pmSSE 1.9 5.1----30.00-- 77.2----
2024-06-12 07:42 pmSSE 2.9 5.1----30.00-- 77.5----
2024-06-12 07:36 pmSSE 4.1 5.1----30.00-- 77.0----
2024-06-12 07:30 pm S 2.9 6.0----30.00- 76.8 76.1----
2024-06-12 07:24 pm S 4.1 7.0----30.00- 76.8 76.1----
2024-06-12 07:00 pm S 2.9 7.0----30.00-0.02- 76.1----
2024-06-12 06:54 pm S 4.1 6.0----30.00-- 75.9----
2024-06-12 06:48 pmSSE 4.1 5.1----30.00-- 75.9----
2024-06-12 06:42 pm S 5.1 8.0----30.00-- 76.1----
2024-06-12 06:36 pm S 6.0 8.0----30.00-- 76.1----
2024-06-12 06:30 pmSSW 6.0 8.0----30.00- 77.4 75.9----
2024-06-12 06:24 pm S 6.0 8.0----30.00- 77.4 75.9----
2024-06-12 06:18 pmSSW 5.1 8.9----30.00-- 75.9----
2024-06-12 06:12 pmSSW 2.9 7.0----30.00-- 75.9----
2024-06-12 06:06 pmSSW 6.0 8.0----30.00-- 76.1----
2024-06-12 06:00 pm-------30.00-0.02- 76.1----
2024-06-12 05:54 pm-------30.00-- 76.1----
2024-06-12 05:48 pmSSW 5.1 8.0----30.00-- 76.1----
2024-06-12 05:42 pmSSW 6.0 11.1----30.00-- 76.1----
2024-06-12 05:36 pmSSW 5.1 8.0----30.00-- 76.3----
2024-06-12 05:30 pm-------30.00- 77.9 76.1----
2024-06-12 05:24 pm-------30.00- 77.7 75.9----
2024-06-12 05:18 pmSSW 6.0 8.0----30.00- 77.5 75.9----
2024-06-12 05:12 pmSSW 5.1 8.0----30.00- 77.7 75.9----
2024-06-12 05:06 pm SW 5.1 8.0----30.01- 77.4 75.7----
2024-06-12 05:00 pm SW 5.1 8.0----30.01-0.04- 75.6----
2024-06-12 04:54 pmSSW 5.1 8.0----30.01-- 75.7----
2024-06-12 04:48 pm S 5.1 8.0----30.01-- 75.9----
2024-06-12 04:42 pm SW 5.1 8.0----30.01-- 75.9----
2024-06-12 04:36 pm S 5.1 7.0----30.01-- 75.7----
2024-06-12 04:30 pm SW 5.1 8.0----30.01- 77.2 75.6----
2024-06-12 04:24 pm SW 6.0 7.0----30.01- 76.8 75.6----
2024-06-12 04:18 pm SW 5.1 7.0----30.01- 76.8 75.6----
2024-06-12 04:12 pm SW 5.1 7.0----30.01- 76.6 75.6----
2024-06-12 04:06 pm SW 6.0 8.0----30.01- 76.3 75.6----
2024-06-12 04:00 pm SW 6.0 8.0----30.01-0.04- 75.6----
2024-06-12 03:54 pm SW 5.1 7.0----30.01-- 75.6----
2024-06-12 03:48 pmWSW 4.1 6.0----30.01-- 75.6----
2024-06-12 03:42 pm SW 2.9 7.0----30.01-- 75.4----
2024-06-12 03:36 pm SW 4.1 7.0----30.02-- 75.4----
2024-06-12 03:30 pm SW 4.1 6.0----30.02- 77.2 75.4----
2024-06-12 03:24 pm SW 5.1 7.0----30.02- 76.6 75.4----
2024-06-12 03:18 pmSSW 5.1 7.0----30.02- 76.1 75.4----
2024-06-12 03:12 pm SW 4.1 6.0----30.02- 76.5 75.4----
2024-06-12 03:06 pm SW 4.1 6.0----30.02- 76.8 75.4----
2024-06-12 03:00 pm SW 4.1 6.0----30.02-0.04 76.1 75.6----
2024-06-12 02:54 pm SW 4.1 6.0----30.02- 75.4 75.6----
2024-06-12 02:48 pm SW 2.9 5.1----30.02-- 75.4----
2024-06-12 02:42 pm SW 4.1 7.0----30.02-- 75.4----
2024-06-12 02:36 pm SW 2.9 7.0----30.03-- 75.4----
2024-06-12 02:30 pm SW 4.1 7.0----30.03- 75.4 75.4----
2024-06-12 02:24 pmWSW 4.1 6.0----30.03- 75.0 75.4----
2024-06-12 02:18 pm SW 5.1 8.0----30.03-- 75.2----
2024-06-12 02:12 pm SW 2.9 5.1----30.03-- 75.2----
2024-06-12 02:06 pm SW 2.9 7.0----30.04-- 75.2----
2024-06-12 02:00 pm SW 5.1 5.1----30.04-0.03- 75.2----
2024-06-12 01:54 pm SW 4.1 5.1----30.04-- 75.2----
2024-06-12 01:48 pm SW 2.9 5.1----30.05-------
2024-06-12 01:42 pm SW 2.9 5.1----30.05-------
2024-06-12 01:36 pm SW 1.9 4.1----30.05-------
2024-06-12 01:30 pmSSW 1.9 4.1----30.05- 74.7 75.6----
2024-06-12 01:24 pmSSW 1.9 4.1----30.05- 74.8 75.6----
2024-06-12 01:18 pmSSW 1.9 2.9----30.05-- 75.6----
2024-06-12 01:12 pmSSW 1.0 2.9----30.06-- 75.4----
2024-06-12 01:06 pmSSW 1.0 2.9----30.06-- 75.4----
2024-06-12 01:00 pm-------30.06-0.01 73.4 75.4----
2024-06-12 12:54 pm-------30.06- 73.0 75.2----
2024-06-12 12:48 pm SW 4.1 5.1----30.06-- 75.0----
2024-06-12 12:42 pm SW 4.1 5.1----30.06-- 75.0----
2024-06-12 12:36 pm SW 4.1 5.1----30.06-- 74.7----
2024-06-12 12:30 pm SW 2.9 4.1----30.06- 72.0-----
2024-06-12 12:24 pm SW 2.9 4.1----30.06- 72.0-----
2024-06-12 12:18 pm SW 2.9 4.1----30.06-------
2024-06-12 12:12 pm SW 1.9 5.1----30.06-------
2024-06-12 12:06 pmWSW 2.9 2.9----30.06-------
2024-06-12 12:00 pm-------30.06-0.01 70.7 74.7----
2024-06-12 11:54 am-------30.06- 70.2 74.7----
2024-06-12 11:48 amWSW 1.9 2.9----30.06- 70.2 74.7----
2024-06-12 11:42 amWNW 1.0 2.9----30.06- 70.0 74.7----
2024-06-12 11:36 am W 1.9 2.9----30.07- 70.2 74.5----
2024-06-12 11:30 am- 0.0 1.9----30.07- 71.6 74.5----
2024-06-12 11:24 am NW 1.9 2.9----30.07- 70.9 74.5----
2024-06-12 11:18 amNNW 1.9 2.9----30.07- 70.3 74.3----
2024-06-12 11:12 amWNW 1.0 4.1----30.07- 69.6 74.3----
2024-06-12 11:06 amWNW 2.9 4.1----30.07- 69.4 74.3----
2024-06-12 11:00 am W 1.9 2.9----30.07+0.01- 74.3----
2024-06-12 10:54 amWNW 1.9 4.1----30.07-- 74.3----
2024-06-12 10:48 am W 2.9 4.1----30.07-- 74.1----
2024-06-12 10:42 amWNW 1.9 4.1----30.07-- 74.1----
2024-06-12 10:36 am W 2.9 4.1----30.07-- 74.1----
2024-06-12 10:30 am W 2.9 4.1----30.08- 68.4 74.1----
2024-06-12 10:24 amWNW 2.9 4.1----30.07- 69.1 74.1----
2024-06-12 10:18 amWNW 1.9 2.9----30.07-- 74.1----
2024-06-12 10:12 am NW 1.9 2.9----30.07-- 73.9----
2024-06-12 10:06 am NW 1.9 4.1----30.07-- 73.9----
2024-06-12 10:00 amWNW 1.9 4.1----30.07+0.00 68.2 73.9----
2024-06-12 09:54 am NW 2.9 5.1----30.07- 68.2 74.1----
2024-06-12 09:48 amNNW 2.9 4.1----30.07-- 73.9----
2024-06-12 09:42 amNNW 2.9 4.1----30.07-- 74.1----
2024-06-12 09:36 am NW 2.9 4.1----30.08-- 74.1----
2024-06-12 09:30 amNNW 4.1 5.1----30.07- 67.3 74.1----
2024-06-12 09:24 am NW 4.1 4.1----30.08- 67.5 74.1----
2024-06-12 09:18 amNNW 4.1 5.1----30.08-- 74.1----
2024-06-12 09:12 am NW 2.9 4.1----30.08- 67.6 74.3----
2024-06-12 09:06 amWNW 2.9 4.1----30.08- 67.8 74.3----
2024-06-12 09:00 amWNW 1.9 4.1----30.08+0.02 67.3 74.3----
2024-06-12 08:54 am W 2.9 4.1----30.08- 66.7 74.3----
2024-06-12 08:48 am NW 4.1 5.1----30.08- 66.9 74.3----
2024-06-12 08:42 amWNW 5.1 6.0----30.07- 66.6 74.3----
2024-06-12 08:36 am NW 2.9 5.1----30.07- 66.9 74.3----
2024-06-12 08:30 amWNW 2.9 4.1----30.07- 67.1 74.5----
2024-06-12 08:24 am NW 1.9 2.9----30.07- 67.1 74.5----
2024-06-12 08:18 amNNW 1.9 2.9----30.06- 67.1 74.5----
2024-06-12 08:12 am N 1.0 2.9----30.06- 67.3 74.5----
2024-06-12 08:06 am N 1.9 2.9----30.06- 66.9 74.5----
2024-06-12 08:00 amNNE 1.9 2.9----30.06+0.02 67.1 74.5----
2024-06-12 07:54 am N 1.9 2.9----30.06- 66.9 74.5----
2024-06-12 07:48 am N 2.9 4.1----30.06-- 74.5----
2024-06-12 07:42 amNNW 1.9 2.9----30.07-- 74.5----
2024-06-12 07:36 am NW 2.9 4.1----30.07-- 74.7----
2024-06-12 07:30 am NW 1.9 4.1----30.07- 66.2 74.7----
2024-06-12 07:24 am N 4.1 5.1----30.06- 66.0 74.7----
2024-06-12 07:18 amNNW 2.9 5.1----30.07- 66.4 74.7----
2024-06-12 07:12 am N 4.1 5.1----30.06- 66.2 74.7----
2024-06-12 07:06 am- 0.0 1.0----30.06- 66.2 74.7----
2024-06-12 07:00 am- 0.0 1.0----30.06+0.04 64.9 74.7----
2024-06-12 06:54 am- 0.0 1.9----30.06- 64.4 74.7----
2024-06-12 06:48 am E 1.9 1.9----30.06-- 74.7----
2024-06-12 06:42 am E 1.0 1.9----30.06-- 74.7----
2024-06-12 06:36 am E 1.0 1.9----30.06-- 74.7----
2024-06-12 06:30 am- 0.0 1.9----30.06- 62.1 74.7----
2024-06-12 06:24 am E 1.0 2.9----30.06- 61.5 74.8----
2024-06-12 06:18 amENE 1.9 4.1----30.05-- 74.8----
2024-06-12 06:12 amENE 1.9 2.9----30.06-- 74.8----
2024-06-12 06:06 amESE 1.9 2.9----30.06-- 74.8----
2024-06-12 06:00 am E 1.9 2.9----30.05+0.03 60.3 74.8----
2024-06-12 05:54 amESE 1.0 1.9----30.05- 60.8 74.8----
2024-06-12 05:48 am E 1.9 1.9----30.05-- 74.8----
2024-06-12 05:42 amESE 1.0 1.9----30.05-- 74.8----
2024-06-12 05:36 am E 1.9 2.9----30.05-- 75.0----
2024-06-12 05:30 am E 2.9 2.9----30.05- 59.9 75.0----
2024-06-12 05:24 am E 2.9 2.9----30.05- 59.9 75.0----
2024-06-12 05:18 am E 1.9 2.9----30.04- 60.3 75.0----
2024-06-12 05:12 am E 1.0 1.9----30.04- 60.6 75.0----
2024-06-12 05:06 amESE 1.0 1.9----30.04- 61.0 75.0----
2024-06-12 05:00 am E 1.9 1.9----30.04+0.02- 75.0----
2024-06-12 04:54 am E 1.9 1.9----30.03-- 75.0----
2024-06-12 04:48 amESE 1.9 1.9----30.03-- 75.0----
2024-06-12 04:42 amESE 1.9 1.9----30.03-- 75.0----
2024-06-12 04:36 amESE 1.9 1.9----30.03-- 75.2----
2024-06-12 04:30 am E 1.9 2.9----30.03- 61.2 75.2----
2024-06-12 04:24 am E 1.9 2.9----30.03- 61.3 75.2----
2024-06-12 04:18 am E 1.9 1.9----30.03- 61.5 75.2----
2024-06-12 04:12 am E 1.9 2.9----30.03- 61.9 75.2----
2024-06-12 04:06 am E 1.9 2.9----30.03- 62.1 75.2----
2024-06-12 04:00 am E 1.9 2.9----30.02+0.01- 75.2----
2024-06-12 03:54 am E 1.0 2.9----30.02-- 75.2----